Location: ??????????
(48.5701°N, 37.7703°E)
Time: 19:12:27
(UTC+00:00)

Cosmos 2082 Rocket - Pass Details

Date: 14 July 2020
Orbit: 834 x 853 km, 71.0° (Epoch: 11 August)

Event Time Altitude Azimuth Distance (km) Brightness Sun altitude
Exits shadow 00:40:53 10° 221° (SW) 2,453 3.9 -8.4°
Maximum altitude 00:46:27 61° 302° (WNW) 964 2.5 -7.8°
Drops below altitude 10° 00:52:07 10° 23° (NNE) 2,488 5.9 -7.2°
Sets 00:54:37 0° 27° (NNE) 3,425 7.0 -6.9°
